COSMOS 252 DEB, 3900

Orbit data source: Space-Track

COSMOS 252 DEB, 3900 is space debris in LEO originally from a launch on Fri, 01 Nov 1968 UTC launched from the Tyuratam Missile And Space Complex (TTMTR). Debris objects in space refer to the collection of defunct objects orbiting the Earth. Examples of debris include non-operational satellites, rocket bodies, and fragments generated from explosions, collisions, or faulty payload assembly.

Loading next visibility...
Identifier
3900, 1968-097BM
Orbit
LEO
Country
Flag of CISCIS
Related business
Manufacturer
Unknown
Mission
Spacecraft
Bus & Motor
Unknown
Mass
Unknown
Launch date (UTC)
1968-11-01 (57 years ago)
Launch vehicle
Unknown
Launch site
Tyuratam Missile And Space Complex (TTMTR)
Object type
Payload
Rocket body
Debris
Shape & HBR
Unknown shape, 0.1 m
Radar Cross Section
Small (<0.1 m²)

Expand to show TLE details & history
Last TLE update: 5 hours ago

TLE from 5 hours ago
0 COSMOS 252 DEB
1  3900U 68097BM  26122.06982792  .00009973  00000-0  86536-3 0  9997
2  3900  62.1958 143.1787 0181414 239.0196 119.2958 14.85714826882688
Epoch: 2026-05-02T01:40Z
TLE epoch observation values (Epoch: 2026-05-02T01:40:33.132Z)
Latitude
-0.00002°
Longitude
-101.95238°
Altitude
676.895 km
Speed
7.485 km/s
True Right ascension
09h 32m 42s
True Declination
0° 00' 00"
Sunlit
Object was in daylight at epoch
Visualization orbit readout
Latitude
Unknown
Longitude
Unknown
Altitude
Unknown
Speed
Unknown
Apparent Right ascension
Unknown
Apparent Declination
Unknown
Sunlit
N/A
Visualization observer readout
Local Sidereal Time
14:41:34
Azimuth
Unknown
Elevation
Unknown
Doppler factor
Unknown
Orbital elements
Apogee altitude
737.032 km
Perigee altitude
483.474 km
Semi-major axis
6,988.39 km
Eccentricity
0.01814
Inclination
62.1958°
RAAN
143.1787°
Arg. of periapsis
239.0196°
True anomaly
121.08858°
Mean anomaly
119.2958°
Eccentric anomaly
120.1942°
Mean motion
3.71516 °/min
Orbital period
96.9 mins
BSTAR
0.00086536
Loading maneuver chart data...
Computing Atmospheric mass density...
Loading historical data...
Loading historical data...
Loading historical data...
Loading historical data...
Loading historical data...
Loading historical data...
Loading historical data...

Documentation

Showing up to 5 results
|